sat.trackr.live / text

‹ back to catalog

ION SCV-010

NORAD 56192 · 2023-054Q

PAYLOAD ACTIVE UNKNOWN

§ Identity

Operator
Country
IT
Launch date
2023-04-15
Launch site
AFWTR
Launch vehicle
Mass (kg)
RCS (m²)

External: N2YO · Heavens-Above · Gunter

§ Orbital elements

Epoch: 2026-09-21T22:39:47.500992Z

Period
94.21 min
Inclination
97.3623°
Eccentricity
0.0011561
Mean motion
15.28529611 rev/d
Perigee alt
472.3 km
Apogee alt
488.1 km
Semi-major
6,858.3 km
B*
1.1584e-4
RAAN
153.2483°
Arg perigee
181.8318°
Mean anomaly
178.2882°
Rev number
19,096

§ Raw data

ION SCV-0101 56192U 23054Q   26264.94429978  .00003146  00000+0  11584-3 0  99942 56192  97.3623 153.2483 0011561 181.8318 178.2882 15.28529611190966

JSON: /api/v1/satellites/56192 · /tle

For live sub-satellite position, see the globe view (requires WebGL).

§ Visibility from observer

Set your observer location to see the next 7 days of passes ≥ 10°. The values pass through the URL so the page stays shareable.

No JS? Fill the form by hand. The geolocation button needs JavaScript.

§ Radio — SatNOGS DB

ModeDescriptionDownlinkUplink
FSK AX.100 Mode 5 Mode U - FSK1k2 AX.100 401.415 MHz
BPSK S-Band Transmitter 2.262 GHz

2 transmitters · refreshed weekly from db.satnogs.org